Dewpoint
27 28 29 25 24 22 22 30 30 28 30 35 40 42 43 37 33 34 33 34 34 35 36 38 39 41 42 41 42 43 44 44 45 47 48 50 52 54 56 56 54 54 54 54
23 29 23 20 18 21 25 24 28 32 33 36 38 44 42 39 35 33 32 32 31 31 32 33 34 35 37 37 37 36 36 36 38 39 41 43 45 46 47 47 48 53 54 54
18 24 21 13 19 18 24 29 32 31 33 40 43 43 41 39 36 33 32 32 30 30 30 31 32 33 33 32 33 33 33 32 33 35 36 37 38 39 41 43 45 45 44 44
22 22 9 12 20 24 31 33 32 32 38 41 39 39 41 39 37 36 33 31 30 30 30 30 31 31 31 30 29 29 29 29 31 33 33 34 36 37 39 41 42 39 37 35
20 18 17 16 28 28 31 28 37 36 39 39 38 37 36 36 35 33 32 32 31 30 30 30 30 29 28 28 27 26 27 28 30 31 31 33 34 35 37 38 37 33 32 31
25 18 12 16 30 31 34 20 36 36 37 39 39 37 34 34 33 31 29 28 28 29 29 28 28 28 27 26 25 25 26 27 28 29 30 30 31 33 33 33 31 30 29 30
24 21 21 29 33 35 15 23 35 35 38 39 38 35 32 32 30 30 29 27 27 27 27 27 26 26 25 25 25 24 24 25 26 26 28 29 29 30 30 29 29 29 28 28
23 21 17 33 34 27 34 36 34 33 33 32 31 29 29 28 28 28 28 25 25 25 25 25 26 25 24 23 24 24 23 24 24 25 26 26 27 28 28 28 28 28 27 27
25 24 34 33 33 33 38 37 35 34 33 32 29 28 27 26 26 26 25 23 23 24 24 24 24 24 23 23 23 24 23 23 23 23 23 24 25 25 25 25 25 25 24 24
32 34 34 34 32 32 33 34 34 33 31 29 26 26 25 25 25 25 23 21 22 22 22 22 23 23 23 22 22 22 21 22 22 22 22 22 23 24 24 23 23 23 23 24
33 34 34 33 34 33 31 31 30 31 30 28 27 25 24 22 22 21 20 20 20 20 20 21 21 22 23 22 22 21 21 21 21 22 21 21 23 23 23 26 25 23 23 24
28 32 30 29 30 31 29 29 29 26 25 26 25 23 22 20 20 19 18 18 19 19 19 20 20 20 21 22 22 21 21 21 21 21 20 20 19 19 22 23 23 23 24 24
31 31 29 29 29 29 26 26 26 25 25 22 21 20 20 20 19 20 18 18 18 18 19 19 19 20 20 21 21 21 22 21 20 20 19 19 18 18 17 18 18 20 21 21
32 32 27 28 24 25 22 20 21 20 19 19 19 17 17 16 16 17 17 17 17 17 17 16 16 16 18 20 19 18 18 17 20 19 18 18 18 17 16 16 15 14 15 16
28 28 26 24 22 20 20 18 17 16 16 16 16 16 15 14 14 15 16 16 16 14 14 14 14 14 16 16 17 18 19 18 18 18 17 16 16 15 14 13 12 12 12 11
25 24 23 22 21 19 17 16 16 15 14 14 14 13 13 12 12 12 12 13 11 10 12 12 12 13 14 15 17 18 18 15 16 16 16 15 14 12 11 10 9 8 8 8
25 23 22 20 19 18 17 16 16 15 15 14 14 14 12 11 10 10 10 10 10 10 11 11 11 11 13 14 17 17 17 16 14 15 14 13 12 11 9 8 7 6 5 5
20 21 22 20 19 17 16 16 15 14 13 13 12 11 9 9 8 7 7 8 8 8 9 10 12 12 13 14 15 15 15 14 13 12 11 11 9 8 8 6 5 4 5 3
18 18 18 17 17 16 15 14 13 12 11 11 9 6 6 5 5 4 5 5 6 7 8 10 12 11 11 13 11 12 12 12 10 9 9 7 9 7 7 7 5 5 4 3
15 14 13 13 13 13 11 11 11 10 9 7 6 4 3 2 3 3 5 5 7 8 9 9 9 9 8 7 7 8 10 11 8 8 9 7 8 7 6 3 4 4 5 3
12 12 11 11 10 10 10 10 9 7 6 6 5 4 3 2 2 3 5 5 7 7 6 6 6 6 5 4 4 9 9 8 8 7 7 6 6 5 5 5 5 5 4 4
12 11 11 11 11 10 11 11 9 7 5 4 2 2 3 3 4 5 5 6 6 5 5 4 4 0 3 5 5 7 5 5 5 6 5 5 5 4 4 4 3 3 2 2
12 12 12 11 11 11 10 8 7 6 5 4 5 6 6 6 5 4 3 5 6 5 5 5 -2 -3 -3 5 5 5 4 4 4 3 3 3 3 3 3 2 2 2 2 1
14 14 14 13 13 11 11 11 11 10 9 8 6 6 6 6 7 5 4 2 1 4 5 5 3 -2 -1 3 3 3 3 3 3 3 3 -7 2 0 1 0 0 1 -1 -3
15 15 14 14 12 11 11 11 10 10 9 8 9 8 7 6 7 8 8 7 5 3 5 -3 -4 -6 4 4 4 3 3 3 3 3 3 3 2 1 1 0 -2 -0 -1 -2
16 14 15 15 15 14 12 10 10 10 9 9 9 7 7 7 7 8 7 4 6 4 7 6 4 3 4 4 4 3 3 3 2 2 0 1 1 0 -0 -0 -1 -1 -1 -2
15 14 12 11 12 12 13 13 13 12 12 12 10 9 8 7 7 6 3 8 8 6 6 5 4 3 5 5 4 3 3 3 -0 2 2 1 0 1 -0 -1 -1 -1 -2 -5
Lifted_Index
1 1 1 2 3 3 3 3 2 2 2 2 2 2 3 3 4 3 1 0 -1 -0 -0 -0 -0 -0 -0 -0 0 0 0 0 0 0 1 1 1 1 1 1 2 2 2 2
1 1 1 2 3 3 3 3 2 2 2 2 2 2 2 3 3 4 3 2 2 2 1 1 1 1 1 1 1 1 1 1 1 1 1 1 1 1 1 1 1 2 2 2
1 1 2 2 3 3 2 2 2 2 2 1 1 1 2 3 3 4 5 5 5 5 5 5 4 4 4 4 4 4 4 4 4 3 3 2 2 2 2 2 2 2 2 2
1 1 2 2 2 2 2 2 2 2 1 1 1 1 2 2 3 4 5 5 6 6 7 7 8 8 8 8 8 7 7 7 7 6 5 5 5 4 4 4 3 3 3 3
1 1 2 2 2 2 2 2 2 2 2 1 1 1 2 3 4 4 5 5 6 7 7 8 9 9 10 10 10 10 10 9 9 8 8 8 8 7 7 6 6 5 4 4
1 1 2 2 2 3 3 3 3 3 2 2 1 1 2 3 4 5 5 6 7 7 8 8 9 10 10 10 10 11 11 11 10 10 10 9 9 9 9 8 8 7 7 7
1 1 2 2 2 3 3 4 4 3 2 2 2 2 3 4 5 5 6 7 7 8 8 9 10 10 10 10 11 11 12 11 11 11 10 10 10 10 9 9 9 9 9 9
2 2 2 2 2 3 3 4 4 3 2 2 2 2 4 5 5 5 6 7 7 8 8 9 10 10 10 10 11 12 12 12 11 11 11 11 11 10 10 10 10 9 10 10
2 2 2 2 3 3 4 4 4 3 3 3 3 3 4 5 6 6 6 7 8 8 9 10 10 10 10 11 12 12 12 11 11 11 12 12 11 11 11 11 10 10 10 10
2 2 2 2 3 3 4 4 4 4 4 4 4 4 5 5 6 6 7 8 9 9 9 10 10 11 11 12 13 12 11 11 11 11 11 12 12 12 12 12 12 12 11 11
1 1 2 2 3 3 4 4 5 5 5 5 5 5 5 6 6 7 7 8 9 9 9 10 11 12 12 13 14 13 12 12 12 12 12 12 13 13 13 14 14 13 13 13
1 2 2 3 3 4 4 4 5 5 5 5 6 6 6 6 6 7 8 8 9 10 10 11 12 13 13 14 15 14 13 13 13 13 13 13 13 14 14 15 16 15 15 15
2 2 3 3 4 5 5 5 5 6 6 6 6 7 7 7 7 8 9 10 10 11 12 13 13 14 15 16 16 15 14 14 14 14 14 14 14 14 14 15 16 16 17 17
4 3 4 4 4 5 6 6 6 6 7 7 7 8 8 8 9 9 10 12 13 13 14 14 14 15 16 17 17 16 16 15 15 15 15 16 16 16 16 16 16 17 18 18
4 4 4 5 5 5 6 6 6 6 7 8 8 9 9 10 10 11 12 14 14 14 15 15 15 16 17 18 18 17 17 17 17 17 18 18 18 18 18 18 18 19 19 20
4 4 5 5 6 6 7 7 7 7 8 9 10 11 12 12 13 13 14 15 15 15 15 16 16 18 19 19 19 19 19 19 20 20 20 20 20 20 20 20 20 20 21 21
5 5 5 6 6 7 7 8 9 9 10 11 12 13 14 14 14 15 16 16 16 16 17 18 19 20 21 21 21 21 21 21 21 21 21 21 21 21 21 21 21 21 21 22
7 7 7 8 8 8 9 10 11 12 12 13 14 15 15 15 15 16 16 17 17 17 19 20 21 21 22 22 21 21 21 21 21 21 21 21 21 21 21 21 21 21 21 22
9 9 9 10 10 11 11 12 13 14 14 15 15 15 15 15 16 16 17 17 18 18 20 21 21 21 21 21 21 21 21 21 21 21 21 21 21 21 21 21 21 21 22 22
10 10 11 11 12 12 13 13 14 15 15 15 15 15 15 16 17 17 17 18 18 19 21 21 21 21 21 21 21 21 21 21 21 21 21 21 21 21 21 21 21 22 22 22
11 11 11 12 12 13 14 14 15 15 15 16 16 16 16 17 17 18 18 18 19 21 21 21 21 21 21 22 22 21 21 21 21 21 21 21 21 21 21 21 22 22 23 23
12 12 12 12 13 13 14 15 15 16 16 16 17 17 17 17 18 18 18 19 20 21 22 22 22 22 22 22 22 21 21 21 21 21 21 21 21 21 22 22 22 23 23 23
13 13 13 13 13 14 15 16 16 17 17 17 18 18 18 18 18 18 18 20 21 22 22 22 22 22 22 22 22 21 21 21 21 21 21 22 22 22 22 22 23 23 23 23
13 13 13 14 14 14 15 16 17 17 17 18 18 18 18 18 18 19 20 21 22 22 22 22 22 22 22 22 22 22 22 22 22 22 22 22 22 22 22 22 22 22 22 22
13 14 14 14 14 15 15 16 16 17 17 17 18 18 19 19 19 20 21 21 21 21 22 22 22 22 22 22 22 22 22 22 22 22 22 22 22 22 21 21 21 21 21 21
13 14 14 14 14 15 15 16 16 16 16 17 17 18 19 20 20 20 21 21 21 22 22 22 22 22 22 22 22 22 22 22 21 21 21 21 21 20 20 20 20 20 20 20
14 14 14 14 15 15 16 16 16 16 16 17 17 18 19 20 20 21 21 21 21 22 22 22 22 22 22 22 22 21 21 21 20 20 20 20 20 19 19 19 19 20 20 20